Glasgow, KY

11:31 AM CST on February 27, 2017 (GMT -0600)
Glasgow Municipal

Weather History for KGLW - December, 2012

Change the Weather History Date:

Thursday, December 6, 2012

  Actual Average Record
Temperature  
Mean Temperature 48 °F -  
Max Temperature 56 °F 49 °F 67 °F (1956)
Min Temperature 40 °F 30 °F 8 °F (1977)
Degree Days  
Heating Degree Days 17    
Moisture  
Dew Point 47 °F    
Average Humidity 83    
Maximum Humidity 100    
Minimum Humidity 71    
Precipitation  
Precipitation 0.02 in - - ()
Sea Level Pressure  
Sea Level Pressure 30.04 in    
Wind  
Wind Speed 2 mph (ESE)    
Max Wind Speed 7 mph    
Max Gust Speed -    
Visibility 9 miles    
Events Rain    
Averages and records for this station are not official NWS values.
T = Trace of Precipitation, MM = Missing Value Source: NWS Daily Summary

Daily Weather History Graph

Daily Weather History Graph

Search for Another Location

Airport or City:

Trip Planner

Search our weather history database for the weather conditions in past years. The results will help you decide how hot, cold, wet, or windy it might be!

Date:

Astronomy

Dec. 06, 2012 Rise Set
Actual Time 6:43 AM CST 4:26 PM CST
Civil Twilight 6:14 AM CST 4:55 PM CST
Nautical Twilight 5:42 AM CST 5:27 PM CST
Astronomical Twilight 5:10 AM CST 5:59 PM CST
Moon No Moon Rise 11:43 AM CST (12/6)
Length of Visible Light 10h 40m
Length of Day
9h 43m
Waning Gibbous, 49% of the Moon is Illuminated
Dec 6
Waning Gibbous
Dec 13
New
Dec 19
First Quarter
Dec 28
Full
Jan 4
Last Quarter

Hourly Weather History & Observations

Time (CST) Temp. Windchill Dew Point Humidity Pressure Visibility Wind Dir Wind Speed Gust Speed Precip Events Conditions
7:35 AM 40.6 °F 38.6 °F 40.6 °F 100% 30.12 in 10.0 mi East 3.5 mph - N/A   Overcast
7:55 AM 41.5 °F 39.6 °F 40.1 °F 95% 30.12 in 10.0 mi East 3.5 mph - N/A   Overcast
8:15 AM 42.8 °F 41.1 °F 38.1 °F 84% 30.13 in 10.0 mi East 3.5 mph - N/A   Overcast
8:35 AM 43.7 °F 42.1 °F 37.4 °F 78% 30.13 in 10.0 mi East 3.5 mph - N/A   Overcast
8:55 AM 44.4 °F - 37.9 °F 78% 30.12 in 10.0 mi Calm Calm - N/A   Overcast
9:15 AM 45.3 °F - 38.3 °F 76% 30.13 in 10.0 mi Calm Calm - N/A   Overcast
9:35 AM 46.0 °F - 39.2 °F 77% 30.13 in 2.0 mi Calm Calm - N/A   Heavy Drizzle
9:55 AM 45.9 °F - 41.5 °F 85% 30.13 in 10.0 mi Calm Calm - N/A   Overcast
10:15 AM 46.8 °F - 44.6 °F 92% 30.12 in 4.0 mi Calm Calm - N/A Rain Heavy Rain
10:35 AM - - - N/A% 30.11 in 7.0 mi Calm Calm - 0.01 in   Light Drizzle
10:55 AM 48.4 °F - 48.4 °F 100% 30.10 in 10.0 mi East 4.6 mph - 0.01 in   Overcast
11:15 AM 49.3 °F - 49.1 °F 99% 30.09 in 10.0 mi Calm Calm - N/A   Overcast
11:35 AM 50.4 °F - 49.1 °F 95% 30.08 in 10.0 mi Calm Calm - N/A   Overcast
11:55 AM 51.4 °F - 47.1 °F 85% 30.08 in 10.0 mi Calm Calm - N/A   Overcast
12:15 PM 51.8 °F - 46.4 °F 82% 30.08 in 5.0 mi Calm Calm - N/A Rain Rain
12:35 PM 51.8 °F - 46.9 °F 83% 30.07 in 10.0 mi SSE 3.5 mph - N/A   Overcast
12:55 PM 52.3 °F - 47.3 °F 83% 30.05 in 10.0 mi East 3.5 mph - N/A   Overcast
1:15 PM 52.9 °F - 47.5 °F 82% 30.04 in 10.0 mi East 3.5 mph - N/A   Overcast
1:35 PM 53.6 °F - 48.2 °F 82% 30.03 in 10.0 mi East 3.5 mph - N/A   Overcast
1:55 PM 53.8 °F - 48.6 °F 82% 30.03 in 10.0 mi ESE 4.6 mph - N/A   Overcast
2:15 PM 54.5 °F - 48.6 °F 80% 30.03 in 10.0 mi ESE 4.6 mph - N/A   Overcast
2:35 PM 55.0 °F - 49.1 °F 80% 30.03 in 10.0 mi East 3.5 mph - N/A   Overcast
2:55 PM 55.6 °F - 49.5 °F 80% 30.02 in 10.0 mi Calm Calm - N/A   Overcast
3:15 PM 55.8 °F - 49.6 °F 80% 30.02 in 10.0 mi Calm Calm - N/A   Overcast
3:35 PM 55.8 °F - 49.8 °F 80% 30.02 in 10.0 mi East 3.5 mph - N/A   Overcast
3:55 PM 55.6 °F - 50.2 °F 82% 30.02 in 10.0 mi Calm Calm - N/A   Overcast
4:15 PM 55.4 °F - 49.8 °F 81% 30.02 in 10.0 mi Calm Calm - N/A   Overcast
4:35 PM 54.9 °F - 49.3 °F 81% 30.02 in 10.0 mi Calm Calm - N/A   Overcast
4:55 PM 54.3 °F - 49.3 °F 83% 30.02 in 10.0 mi East 3.5 mph - N/A   Overcast
5:15 PM 54.0 °F - 49.3 °F 84% 30.01 in 10.0 mi Calm Calm - N/A   Overcast
5:35 PM 53.6 °F - 48.9 °F 84% 30.01 in 10.0 mi East 3.5 mph - N/A   Overcast
5:55 PM 52.5 °F - 50.4 °F 92% 30.01 in 10.0 mi East 4.6 mph - N/A   Overcast
6:15 PM 53.1 °F - 50.0 °F 89% 30.01 in 10.0 mi East 3.5 mph - N/A Rain Light Rain
6:35 PM 53.4 °F - 48.9 °F 85% 30.01 in 10.0 mi Calm Calm - N/A   Overcast
6:55 PM 53.4 °F - 49.3 °F 86% 30.01 in 10.0 mi Calm Calm - N/A   Overcast
7:15 PM 54.0 °F - 49.1 °F 84% 30.01 in 10.0 mi Calm Calm - N/A   Overcast
7:35 PM 54.7 °F - 48.6 °F 80% 30.00 in 10.0 mi Calm Calm - N/A   Overcast
7:55 PM 54.9 °F - 48.4 °F 79% 30.00 in 10.0 mi Calm Calm - N/A   Overcast
8:35 PM 55.9 °F - 47.7 °F 74% 30.00 in 10.0 mi South 4.6 mph - N/A   Overcast
8:55 PM 56.7 °F - 47.5 °F 71% 30.00 in 10.0 mi South 3.5 mph - N/A   Overcast
9:15 PM 56.5 °F - 47.3 °F 71% 30.01 in 10.0 mi SSW 4.6 mph - N/A   Overcast
9:35 PM 56.3 °F - 47.3 °F 72% 30.01 in 10.0 mi SSW 5.8 mph - N/A   Overcast
9:55 PM 56.3 °F - 47.8 °F 73% 30.01 in 7.0 mi South 4.6 mph - N/A   Drizzle
10:15 PM 54.7 °F - 49.1 °F 81% 30.01 in 10.0 mi Calm Calm - 0.01 in Rain Light Rain
10:35 PM 53.8 °F - 50.5 °F 89% 30.00 in 7.0 mi Calm Calm - 0.01 in Rain Light Rain
10:55 PM 54.0 °F - 50.7 °F 89% 30.00 in 7.0 mi SE 5.8 mph - 0.01 in Rain Light Rain
11:15 PM 53.8 °F - 50.5 °F 89% 30.00 in 10.0 mi SSE 4.6 mph - N/A   Overcast
11:35 PM 54.1 °F - 49.3 °F 84% 30.00 in 10.0 mi SSE 6.9 mph - N/A   Overcast
11:55 PM 54.7 °F - 48.4 °F 79% 29.99 in 10.0 mi SSE 5.8 mph - N/A   Overcast